Regional Weather Roundup
Issued by NWS

Home | Current Version | Previous Version | Graphics & Text | Print | Product List | Glossary Off
Versions: 1 2 3 4 5 6 7 8 9 10 11 12 13 14 15 16 17 18 19 20 21 22 23 24 25 26 27 28 29 30 31 32 33 34 35 36 37 38 39 40 41 42 43 44 45 46 47 48 49 50

000
ASUS43 KMKX 011921
RWRWI

WISCONSIN REGIONAL WEATHER ROUNDUP
NATIONAL WEATHER SERVICE MILWAUKEE/SULLIVAN WI
200 PM CDT MON SEP 01 2014

NOTE: "FAIR" INDICATES FEW OR NO CLOUDS BELOW 12,000 FEET WITH NO
SIGNIFICANT WEATHER AND/OR OBSTRUCTIONS TO VISIBILITY.

WIZ001-002-006>008-014>016-023>028-012000-
NORTHWEST WISCONSIN

CITY           SKY/WX    TMP DP  RH WIND       PRES   REMARKS
SUPERIOR ARPT  PTSUNNY   71  59  65 NW13      29.67R
ASHLAND        PTSUNNY   71  60  68 W9        29.66R
HAYWARD        MOSUNNY   69  58  67 SW10G16   29.69R
SIREN          PTSUNNY   72  56  57 W12G18    29.71R
RICE LAKE      PTSUNNY   72  57  60 W10G18    29.73R
LADYSMITH      MOSUNNY   72  60  65 W12       29.71R
EAU CLAIRE     MOSUNNY   75  60  59 NW13      29.70R
MENOMONIE      PTCLDY    76  59  54 W14       29.71S
NEW RICHMOND   PTSUNNY   72  58  60 NW14G20   29.74R
OSCEOLA        MOSUNNY   74  59  59 NW8       29.75R
$$

WIZ003>005-009-010-017-018-012000-
NORTH CENTRAL WISCONSIN

CITY           SKY/WX    TMP DP  RH WIND       PRES   REMARKS
WOODRUFF       PTSUNNY   67  62  84 W8        29.67R
RHINELANDER    PTSUNNY   70  61  73 W14       29.67S
EAGLE RIVER    CLOUDY    68  61  77 W14       29.65S
LAND O LAKES   HVY RAIN  65  60  84 W8G26     29.67R
PHILLIPS       PTSUNNY   71  62  73 W7        29.66F
TOMAHAWK       MOSUNNY   70  60  70 W10G16    29.67S
MEDFORD        MOSUNNY   70  62  77 W9        29.69R
MERRILL        LGT RAIN  69  65  85 W8        29.66F
$$

WIZ029-030-035-036-043>047-012000-
CENTRAL WISCONSIN

CITY           SKY/WX    TMP DP  RH WIND       PRES   REMARKS
WAUSAU         LGT RAIN  70  63  78 SW12G21   29.67S
MOSINEE        PTSUNNY   70  66  88 SW13      29.69
MARSHFIELD     MOSUNNY   71  64  78 W9        29.69S
STEVENS POINT  PTSUNNY   70  63  78 W13       29.69S
WAUPACA        CLOUDY    71  68  90 SW8       29.69S
WAUTOMA        CLOUDY    72  66  83 SW7       29.70S
WISC RAPIDS    PTSUNNY   76  64  66 W14       29.70S
CAMP DOUGLAS   SUNNY     77  69  75 W12       29.70R
$$

WIZ011>013-019>022-031-037>040-048>050-012000-
NORTHEAST WISCONSIN

CITY           SKY/WX    TMP DP  RH WIND       PRES   REMARKS
ANTIGO         PTSUNNY   70  62  76 W15       29.67F
STURGEON BAY   CLOUDY    72  64  78 SW18G24   29.66S
GREEN BAY      CLOUDY    71  65  81 SW9G23    29.67F
MANITOWOC      PTSUNNY   75  65  70 SW20G25   29.67F
APPLETON       DRIZZLE   70  66  88 SW13      29.69F FOG
CLINTONVILLE   DRIZZLE   70  64  83 SW7       29.67S
OSHKOSH        CLOUDY    72  65  78 W13G21    29.69S
$$

WIZ032>034-041-042-053>061-012000-
SOUTHWEST WISCONSIN

CITY           SKY/WX    TMP DP  RH WIND       PRES   REMARKS
LA CROSSE      LGT RAIN  68  62  81 NW16G26   29.73R
SPARTA         PTSUNNY   77  63  61 W12       29.71R
VIROQUA        MOCLDY    73  65  74 W7        29.74S
BOSCOBEL       LGT RAIN  74  69  85 VRB5      29.73S
PRAIRIE DU CHI MOSUNNY   78  63  60 W10       29.72S HX  80
PLATTEVILLE    FAIR      77  68  72 SW10G16   29.76S
$$

WIZ056-057-062-063-064-067-068-012000-
SOUTH CENTRAL WISCONSIN

CITY           SKY/WX    TMP DP  RH WIND       PRES   REMARKS
BARABOO/DELLS  CLOUDY    72  64  75 SW12      29.72S
LONE ROCK      CLOUDY    78  66  66 W9G17     29.73R HX  80
WATERTOWN      PTSUNNY   76  65  69 W14G22    29.72R
MADISON        PTSUNNY   76  64  66 SW12G21   29.73S
MIDDLETON      CLOUDY    76  65  69 W13       29.74R
MONROE         PTSUNNY   77  64  65 W23G29    29.76R
JANESVILLE     PTSUNNY   81  63  54 SW18G24   29.74R HX  82
$$

WIZ051-052-058>065-066-070>072-012000-
SOUTHEAST WISCONSIN

CITY           SKY/WX    TMP DP  RH WIND       PRES   REMARKS
MILWAUKEE      PTSUNNY   81  63  54 W20G25    29.71F HX  82
WAUKESHA       PTSUNNY   77  63  61 SW14      29.73S
MILWAUKEE/TIMM MOSUNNY   81  61  50 SW24G31   29.71F HX  81
RACINE         SUNNY     83  65  54 SW12G21   29.74S HX  85
BURLINGTON     PTSUNNY   77  64  63 SW17G24   29.73F
KENOSHA        MOSUNNY   81  68  64 SW14G24   29.73F HX  84
FOND DU LAC    CLOUDY    73  64  73 SW13G24   29.70S
SHEBOYGAN      CLOUDY    76  65  68 W9        29.69S
WEST BEND      PTSUNNY   77  63  61 W10G22    29.71R
JUNEAU         CLOUDY    72  65  78 SW16G22   29.73S
$$

LSZ147-162-012000-
LAKE SUPERIOR

STATION/POSITION TIME  TEMP    WIND        PRES    WAVE
                       AIR SEA DIR/SP/G            HT/PER
                 (UTC) (F)     (DEG/KT/KT) (MB)    (FT/S)
W MID LAKE BUOY  1850   61 58  240/ 16/ 17 1001.6R   2/ 4
DEVILS ISLAND    1900   63     240/ 18/ 21 1002.8S
PORT WING        1800   66     260/ 11/ 16 1004.4
SAXON HARBOR     1840   68      CALM  /  9 1003.7R
$$

LMZ867-665-643>646-012000-
LAKE MICHIGAN

STATION/POSITION TIME  TEMP    WIND        PRES    WAVE
                       AIR SEA DIR/SP/G            HT/PER
                 (UTC) (F)     (DEG/KT/KT) (MB)    (FT/S)
N MID LAKE BUOY  1850   66 65  240/ 12/ 14 1002.8F   4/ 6
NORTHPORT PIER   1800   68     220/  5/  8 1003.4
KEWAUNEE LAKESHO 1900   73     210/ 10/ 16 1003.7F
SHEBOYGAN LAKESH 1900   76 59  230/ 17/ 23 1004.9F
ATWATER BUOY     1900   73     230/ 14/ 21 1007.0F
MILWAUKEE LAKESH 1900   80     240/ 17/ 24   N/A
S MID LAKE BUOY  1850   72 70  220/ 14/ 16 1006.5F   3/ 5
KENOSHA   LAKESH 1900   80     240/ 14/ 21 1006.4F
$$

TC  - TEMPERATURE IN CELSIUS
VSB - VISIBILITY IN STATUTE MILES
WCI - WIND CHILL INDEX
HX  - HEAT INDEX




USA.gov is the U.S. government's official web portal to all federal, state and local government web resources and services.